TRA14L EHAM-GCLA

Flight info

Callsign TRA14L
Flight time N/A
Altitude 36000
Route IDRID L980 LOGAN DCT SAM/N0439F350 M195 LORKU DCT EBOMO DCT KORUL/N0444F370 DCT DEMOS DCT ASMAR DCT VERAM DCT RAKUN DCT ORTIS
Aircraft A21N/M-SDE2E3FGHIJ1RWXYZ/LB1

Departure

Time N/A
Airport Amsterdam Airport Schiphol (EHAM)

Arrival

Time 2026-05-05 19:04
Airport La Palma Airport (GCLA)
Time Latitude Longitude Altitude Speed Heading
2026-05-05 17:16 38.57332 -12.25405 36168 ft 414 kts 217°
2026-05-05 17:16 38.52465 -12.29353 36168 ft 414 kts 217°
2026-05-05 17:17 38.47595 -12.33297 36165 ft 414 kts 217°
2026-05-05 17:17 38.42736 -12.37232 36165 ft 413 kts 217°
2026-05-05 17:18 38.37885 -12.41149 36171 ft 413 kts 216°
2026-05-05 17:18 38.33021 -12.45079 36172 ft 414 kts 216°
2026-05-05 17:19 38.28156 -12.48999 36177 ft 414 kts 216°
2026-05-05 17:19 38.23287 -12.52913 36178 ft 414 kts 216°
2026-05-05 17:20 38.18423 -12.56820 36171 ft 413 kts 216°
2026-05-05 17:20 38.13565 -12.60699 36176 ft 413 kts 216°
2026-05-05 17:21 38.08705 -12.64594 36178 ft 413 kts 216°
2026-05-05 17:22 38.01411 -12.70430 36177 ft 413 kts 216°
2026-05-05 17:22 37.96538 -12.74312 36177 ft 413 kts 216°
2026-05-05 17:23 37.91690 -12.78173 36176 ft 414 kts 216°
2026-05-05 17:23 37.86809 -12.82054 36181 ft 414 kts 216°
2026-05-05 17:24 37.81922 -12.85927 36182 ft 414 kts 216°
2026-05-05 17:24 37.77035 -12.89798 36181 ft 414 kts 216°
2026-05-05 17:25 37.72153 -12.93660 36183 ft 414 kts 216°
2026-05-05 17:25 37.67264 -12.97521 36182 ft 414 kts 216°
2026-05-05 17:26 37.62375 -13.01383 36184 ft 414 kts 216°
2026-05-05 17:26 37.57481 -13.05230 36182 ft 414 kts 216°
2026-05-05 17:27 37.52588 -13.09076 36185 ft 414 kts 216°
2026-05-05 17:27 37.47722 -13.12898 36187 ft 414 kts 216°
2026-05-05 17:28 37.42822 -13.16733 36175 ft 415 kts 216°
2026-05-05 17:28 37.37914 -13.20579 36182 ft 415 kts 216°
2026-05-05 17:29 37.33004 -13.24416 36187 ft 415 kts 216°
2026-05-05 17:29 37.28089 -13.28248 36186 ft 415 kts 216°
2026-05-05 17:30 37.23171 -13.32076 36185 ft 415 kts 216°
2026-05-05 17:30 37.18256 -13.35890 36172 ft 417 kts 216°
2026-05-05 17:31 37.13354 -13.39692 36181 ft 417 kts 216°
2026-05-05 17:31 37.08424 -13.43524 36186 ft 417 kts 216°
2026-05-05 17:32 37.03499 -13.47352 36184 ft 417 kts 216°
2026-05-05 17:32 36.98557 -13.51163 36183 ft 417 kts 215°
2026-05-05 17:33 36.93616 -13.54965 36176 ft 417 kts 216°
2026-05-05 17:33 36.88670 -13.58771 36186 ft 418 kts 216°
2026-05-05 17:34 36.83723 -13.62578 36187 ft 418 kts 215°
2026-05-05 17:34 36.78771 -13.66378 36186 ft 418 kts 215°
2026-05-05 17:35 36.73710 -13.69971 36185 ft 419 kts 213°
2026-05-05 17:35 36.68625 -13.73437 36189 ft 419 kts 213°
2026-05-05 17:36 36.63508 -13.76932 36183 ft 420 kts 212°
2026-05-05 17:36 36.58381 -13.80432 36183 ft 420 kts 212°
2026-05-05 17:37 36.53248 -13.83927 36186 ft 420 kts 212°
2026-05-05 17:37 36.48124 -13.87417 36182 ft 420 kts 212°
2026-05-05 17:38 36.42992 -13.90903 36180 ft 420 kts 212°
2026-05-05 17:38 36.37861 -13.94386 36177 ft 421 kts 212°
2026-05-05 17:39 36.32755 -13.97844 36185 ft 421 kts 212°
2026-05-05 17:39 36.27616 -14.01322 36182 ft 421 kts 212°
2026-05-05 17:40 36.22473 -14.04793 36181 ft 421 kts 212°
2026-05-05 17:40 36.17333 -14.08258 36184 ft 421 kts 212°
2026-05-05 17:41 36.12184 -14.11723 36180 ft 422 kts 212°
2026-05-05 17:41 36.07033 -14.15180 36182 ft 422 kts 212°
2026-05-05 17:42 36.01878 -14.18639 36181 ft 422 kts 212°
2026-05-05 17:42 35.96724 -14.22097 36184 ft 421 kts 212°
2026-05-05 17:43 35.91574 -14.25543 36183 ft 421 kts 212°
2026-05-05 17:43 35.86418 -14.28986 36172 ft 422 kts 212°
2026-05-05 17:44 35.81288 -14.32409 36178 ft 422 kts 212°
2026-05-05 17:44 35.76120 -14.35853 36178 ft 422 kts 212°
2026-05-05 17:45 35.70954 -14.39291 36185 ft 422 kts 212°
2026-05-05 17:45 35.65785 -14.42724 36183 ft 422 kts 212°
2026-05-05 17:46 35.60619 -14.46149 36162 ft 422 kts 212°
2026-05-05 17:46 35.55448 -14.49572 36168 ft 422 kts 212°
2026-05-05 17:47 35.50053 -14.52533 36183 ft 425 kts 206°
2026-05-05 17:47 35.44638 -14.55315 36177 ft 425 kts 207°
2026-05-05 17:48 35.39193 -14.58148 36169 ft 425 kts 207°
2026-05-05 17:48 35.33755 -14.60980 36172 ft 424 kts 207°
2026-05-05 17:49 35.28315 -14.63812 36178 ft 425 kts 207°
2026-05-05 17:49 35.22871 -14.66641 36176 ft 425 kts 207°
2026-05-05 17:50 35.17432 -14.69464 36179 ft 425 kts 207°
2026-05-05 17:50 35.12906 -14.71810 36171 ft 425 kts 207°
2026-05-05 17:51 35.07463 -14.74625 36170 ft 425 kts 207°
2026-05-05 17:51 35.02017 -14.77439 36301 ft 426 kts 207°
2026-05-05 17:51 34.98396 -14.79308 36540 ft 425 kts 207°
2026-05-05 17:52 34.96556 -14.80257 36667 ft 425 kts 207°
2026-05-05 17:52 34.93833 -14.81660 36840 ft 424 kts 207°
2026-05-05 17:52 34.91115 -14.83060 37012 ft 424 kts 207°
2026-05-05 17:52 34.88397 -14.84459 37171 ft 424 kts 207°
2026-05-05 17:53 34.85711 -14.85843 37203 ft 424 kts 207°
2026-05-05 17:53 34.80278 -14.88635 37167 ft 424 kts 207°
2026-05-05 17:54 34.74842 -14.91423 37166 ft 424 kts 207°
2026-05-05 17:54 34.69403 -14.94210 37167 ft 424 kts 207°
2026-05-05 17:55 34.63966 -14.96991 37165 ft 424 kts 207°
2026-05-05 17:55 34.58532 -14.99766 37159 ft 423 kts 207°
2026-05-05 17:56 34.53099 -15.02538 37152 ft 423 kts 207°
2026-05-05 17:56 34.47660 -15.05309 37158 ft 423 kts 207°
2026-05-05 17:57 34.42227 -15.08073 37156 ft 423 kts 207°
2026-05-05 17:57 34.36786 -15.10835 37155 ft 423 kts 207°
2026-05-05 17:58 34.31345 -15.13596 37154 ft 424 kts 207°
2026-05-05 17:58 34.25911 -15.16348 37143 ft 424 kts 207°
2026-05-05 17:59 34.20501 -15.19084 37145 ft 422 kts 207°
2026-05-05 17:59 34.15070 -15.21826 37142 ft 422 kts 207°
2026-05-05 18:00 34.09648 -15.24562 37144 ft 422 kts 207°
2026-05-05 18:00 34.04227 -15.27292 37145 ft 422 kts 207°
2026-05-05 18:01 33.98798 -15.30025 37138 ft 422 kts 207°
2026-05-05 18:01 33.93368 -15.32750 37145 ft 423 kts 206°
2026-05-05 18:02 33.87939 -15.35472 37150 ft 422 kts 207°
2026-05-05 18:02 33.82514 -15.38191 37140 ft 422 kts 207°
2026-05-05 18:03 33.77078 -15.40914 37141 ft 423 kts 206°
2026-05-05 18:03 33.71666 -15.43616 37133 ft 421 kts 207°
2026-05-05 18:04 33.66249 -15.46319 37139 ft 420 kts 207°
2026-05-05 18:04 33.60884 -15.48992 37138 ft 420 kts 207°
2026-05-05 18:05 33.55465 -15.51688 37138 ft 420 kts 207°
2026-05-05 18:05 33.50058 -15.54375 37137 ft 420 kts 207°
2026-05-05 18:06 33.44653 -15.57056 37134 ft 421 kts 207°
2026-05-05 18:06 33.39234 -15.59740 37128 ft 421 kts 207°
2026-05-05 18:07 33.33816 -15.62423 37129 ft 423 kts 207°
2026-05-05 18:07 33.28399 -15.65098 37119 ft 423 kts 207°
2026-05-05 18:08 33.22967 -15.67779 37125 ft 422 kts 207°
2026-05-05 18:08 33.17581 -15.70432 37115 ft 421 kts 207°
2026-05-05 18:09 33.12175 -15.73092 37117 ft 421 kts 207°
2026-05-05 18:09 33.06762 -15.75753 37116 ft 421 kts 207°
2026-05-05 18:10 33.01345 -15.78413 37113 ft 420 kts 207°
2026-05-05 18:10 32.95934 -15.81065 37117 ft 421 kts 207°
2026-05-05 18:11 32.90519 -15.83714 37100 ft 419 kts 206°
2026-05-05 18:11 32.85116 -15.86356 37105 ft 420 kts 206°
2026-05-05 18:12 32.79753 -15.88974 37106 ft 419 kts 206°
2026-05-05 18:12 32.74354 -15.91608 37100 ft 419 kts 206°
2026-05-05 18:13 32.68950 -15.94239 37099 ft 420 kts 206°
2026-05-05 18:13 32.63542 -15.96867 37078 ft 421 kts 206°
2026-05-05 18:14 32.58124 -15.99496 37090 ft 419 kts 206°
2026-05-05 18:14 32.52727 -16.02115 37092 ft 419 kts 207°
2026-05-05 18:15 32.47331 -16.04731 37100 ft 419 kts 207°
2026-05-05 18:15 32.41938 -16.07339 37098 ft 419 kts 206°
2026-05-05 18:16 32.36539 -16.09948 37093 ft 419 kts 206°
2026-05-05 18:16 32.31147 -16.12549 37082 ft 419 kts 206°
2026-05-05 18:17 32.25786 -16.15132 37079 ft 419 kts 206°
2026-05-05 18:17 32.20389 -16.17730 37072 ft 419 kts 206°
2026-05-05 18:18 32.14988 -16.20327 37071 ft 419 kts 206°
2026-05-05 18:18 32.09586 -16.22919 37044 ft 419 kts 206°
2026-05-05 18:19 32.04193 -16.25503 37063 ft 418 kts 206°
2026-05-05 18:19 31.98807 -16.28083 37064 ft 418 kts 206°
2026-05-05 18:20 31.93413 -16.30664 37062 ft 418 kts 206°
2026-05-05 18:20 31.88019 -16.33241 37062 ft 418 kts 206°
2026-05-05 18:21 31.82627 -16.35812 37065 ft 419 kts 206°
2026-05-05 18:21 31.77215 -16.38390 37054 ft 420 kts 206°
2026-05-05 18:22 31.71832 -16.40951 37054 ft 420 kts 206°
2026-05-05 18:22 31.66411 -16.43528 37062 ft 420 kts 206°
2026-05-05 18:23 31.60990 -16.46101 37055 ft 420 kts 206°
2026-05-05 18:23 31.55570 -16.48670 37059 ft 420 kts 206°
2026-05-05 18:24 31.50158 -16.51231 37048 ft 418 kts 206°
2026-05-05 18:24 31.44760 -16.53784 37055 ft 418 kts 206°
2026-05-05 18:25 31.39084 -16.55470 37057 ft 430 kts 187°
2026-05-05 18:25 31.33047 -16.55007 37062 ft 436 kts 180°
2026-05-05 18:26 31.27009 -16.54326 37055 ft 436 kts 180°
2026-05-05 18:26 31.20988 -16.53693 37049 ft 433 kts 181°
2026-05-05 18:27 31.14977 -16.53075 37063 ft 433 kts 181°
2026-05-05 18:27 31.08972 -16.52458 37052 ft 433 kts 181°
2026-05-05 18:28 31.00008 -16.51538 37059 ft 433 kts 181°
2026-05-05 18:28 30.94001 -16.50924 37059 ft 430 kts 181°
2026-05-05 18:29 30.88083 -16.50320 37058 ft 430 kts 181°
2026-05-05 18:29 30.82123 -16.49711 37056 ft 430 kts 181°
2026-05-05 18:30 30.76172 -16.49103 37062 ft 429 kts 181°
2026-05-05 18:30 30.70225 -16.48498 37045 ft 425 kts 182°
2026-05-05 18:31 30.64344 -16.47902 37052 ft 424 kts 182°
2026-05-05 18:31 30.58464 -16.47305 37052 ft 424 kts 182°
2026-05-05 18:32 30.52582 -16.46707 37053 ft 424 kts 182°
2026-05-05 18:32 30.46697 -16.46111 37053 ft 424 kts 182°
2026-05-05 18:33 30.40865 -16.45517 37043 ft 418 kts 184°
2026-05-05 18:33 30.35064 -16.44933 37050 ft 418 kts 184°
2026-05-05 18:34 30.29269 -16.44349 37053 ft 418 kts 184°
2026-05-05 18:34 30.23466 -16.43764 37052 ft 418 kts 184°
2026-05-05 18:35 30.17664 -16.43178 37035 ft 417 kts 185°
2026-05-05 18:35 30.11911 -16.42600 37039 ft 415 kts 185°
2026-05-05 18:36 30.07136 -16.42120 37049 ft 415 kts 185°
2026-05-05 18:36 30.01389 -16.41543 37049 ft 415 kts 185°
2026-05-05 18:37 29.95640 -16.40966 37049 ft 414 kts 185°
2026-05-05 18:37 29.88975 -16.40298 37030 ft 411 kts 185°
2026-05-05 18:38 29.84236 -16.39821 37041 ft 404 kts 186°
2026-05-05 18:38 29.78646 -16.39264 37048 ft 406 kts 186°
2026-05-05 18:39 29.72957 -16.38701 37052 ft 411 kts 185°
2026-05-05 18:39 29.67260 -16.38131 37045 ft 411 kts 185°
2026-05-05 18:40 29.61615 -16.37978 37039 ft 396 kts 197°
2026-05-05 18:40 29.58985 -16.38644 36768 ft 380 kts 207°
2026-05-05 18:40 29.56601 -16.39872 36398 ft 372 kts 216°
2026-05-05 18:41 29.54494 -16.41556 36122 ft 368 kts 224°
2026-05-05 18:41 29.52528 -16.43445 35849 ft 369 kts 225°
2026-05-05 18:41 29.50576 -16.45339 35379 ft 366 kts 224°
2026-05-05 18:41 29.48627 -16.47211 34812 ft 365 kts 224°
2026-05-05 18:42 29.46667 -16.49074 34170 ft 367 kts 224°
2026-05-05 18:42 29.44690 -16.50946 33445 ft 368 kts 223°
2026-05-05 18:42 29.42715 -16.52812 32753 ft 369 kts 223°
2026-05-05 18:42 29.40754 -16.54658 32084 ft 369 kts 223°
2026-05-05 18:43 29.38765 -16.56532 31410 ft 370 kts 223°
2026-05-05 18:43 29.36771 -16.58407 30755 ft 372 kts 222°
2026-05-05 18:43 29.34761 -16.60296 30101 ft 376 kts 222°
2026-05-05 18:43 29.32720 -16.62207 29243 ft 379 kts 222°
2026-05-05 18:44 29.30668 -16.64123 28428 ft 381 kts 222°
2026-05-05 18:44 29.28616 -16.66042 27691 ft 381 kts 222°
2026-05-05 18:44 29.26504 -16.68024 27065 ft 398 kts 222°
2026-05-05 18:44 29.24382 -16.70013 26431 ft 397 kts 221°
2026-05-05 18:45 29.22249 -16.72007 25760 ft 395 kts 221°
2026-05-05 18:45 29.20125 -16.73991 25110 ft 393 kts 221°
2026-05-05 18:45 29.17985 -16.75994 24443 ft 392 kts 221°
2026-05-05 18:45 29.15878 -16.77963 23800 ft 391 kts 221°
2026-05-05 18:46 29.13800 -16.79907 23095 ft 390 kts 221°
2026-05-05 18:46 29.11704 -16.81865 22404 ft 388 kts 221°
2026-05-05 18:46 29.09586 -16.83843 21704 ft 387 kts 221°
2026-05-05 18:46 29.07506 -16.85785 21054 ft 386 kts 221°
2026-05-05 18:47 29.05456 -16.87696 20430 ft 384 kts 221°
2026-05-05 18:47 29.03393 -16.89620 19818 ft 382 kts 221°
2026-05-05 18:47 29.01340 -16.91535 19235 ft 379 kts 221°
2026-05-05 18:47 28.99306 -16.93430 18680 ft 377 kts 221°
2026-05-05 18:48 28.97278 -16.95317 18095 ft 375 kts 221°
2026-05-05 18:48 28.95259 -16.97194 17509 ft 373 kts 221°
2026-05-05 18:48 28.93245 -16.99066 16925 ft 371 kts 221°
2026-05-05 18:48 28.91246 -17.00926 16343 ft 370 kts 221°
2026-05-05 18:49 28.89274 -17.02759 15808 ft 368 kts 221°
2026-05-05 18:49 28.87289 -17.04601 15292 ft 366 kts 221°
2026-05-05 18:49 28.85316 -17.06431 14770 ft 365 kts 220°
2026-05-05 18:49 28.83346 -17.08257 14247 ft 365 kts 220°
2026-05-05 18:50 28.81376 -17.10083 13724 ft 365 kts 220°
2026-05-05 18:50 28.79407 -17.11907 13162 ft 364 kts 220°
2026-05-05 18:50 28.77443 -17.13727 12623 ft 364 kts 220°
2026-05-05 18:50 28.75480 -17.15544 12109 ft 363 kts 220°
2026-05-05 18:51 28.73525 -17.17352 11604 ft 360 kts 220°
2026-05-05 18:51 28.71611 -17.19120 11286 ft 348 kts 220°
2026-05-05 18:51 28.69766 -17.20825 11072 ft 334 kts 220°
2026-05-05 18:51 28.67996 -17.22458 10896 ft 320 kts 220°
2026-05-05 18:52 28.66302 -17.24022 10745 ft 307 kts 220°
2026-05-05 18:52 28.64674 -17.25523 10606 ft 295 kts 220°
2026-05-05 18:52 28.63111 -17.26964 10426 ft 285 kts 220°
2026-05-05 18:52 28.61575 -17.28382 10030 ft 284 kts 220°
2026-05-05 18:53 28.60048 -17.29791 9624 ft 282 kts 220°
2026-05-05 18:53 28.58528 -17.31192 9251 ft 279 kts 220°
2026-05-05 18:53 28.57024 -17.32578 8919 ft 277 kts 221°
2026-05-05 18:53 28.55528 -17.33957 8606 ft 277 kts 220°
2026-05-05 18:54 28.54033 -17.35334 8302 ft 276 kts 220°
2026-05-05 18:54 28.52540 -17.36706 8006 ft 276 kts 221°
2026-05-05 18:54 28.51052 -17.38074 7718 ft 275 kts 220°
2026-05-05 18:54 28.49568 -17.39439 7422 ft 274 kts 220°
2026-05-05 18:55 28.48084 -17.40803 7116 ft 274 kts 220°
2026-05-05 18:55 28.46602 -17.42165 6808 ft 275 kts 220°
2026-05-05 18:55 28.45114 -17.43533 6496 ft 275 kts 221°
2026-05-05 18:55 28.43803 -17.45097 6154 ft 273 kts 239°
2026-05-05 18:56 28.43163 -17.47103 5831 ft 270 kts 264°
2026-05-05 18:56 28.43089 -17.49230 5516 ft 269 kts 271°
2026-05-05 18:56 28.43096 -17.51356 5218 ft 269 kts 271°
2026-05-05 18:56 28.43100 -17.53486 4906 ft 270 kts 270°
2026-05-05 18:57 28.43088 -17.55622 4574 ft 271 kts 271°
2026-05-05 18:57 28.43068 -17.57728 4251 ft 271 kts 271°
2026-05-05 18:57 28.43044 -17.59865 3938 ft 270 kts 271°
2026-05-05 18:57 28.43016 -17.61974 3730 ft 263 kts 272°
2026-05-05 18:58 28.42989 -17.64013 3592 ft 253 kts 271°
2026-05-05 18:58 28.42962 -17.65961 3543 ft 238 kts 272°
2026-05-05 18:58 28.42937 -17.67746 3590 ft 220 kts 271°
2026-05-05 18:58 28.42913 -17.69416 3540 ft 202 kts 271°
2026-05-05 18:59 28.42893 -17.70960 3662 ft 193 kts 271°
2026-05-05 18:59 28.42875 -17.72455 3475 ft 188 kts 272°
2026-05-05 18:59 28.42899 -17.73935 3151 ft 187 kts 280°
2026-05-05 18:59 28.43524 -17.75176 2993 ft 186 kts 324°
2026-05-05 19:00 28.44755 -17.75517 2992 ft 186 kts
2026-05-05 19:00 28.46035 -17.75367 2956 ft 184 kts
2026-05-05 19:00 28.47302 -17.75320 2694 ft 180 kts
2026-05-05 19:00 28.48532 -17.75316 2456 ft 169 kts
2026-05-05 19:01 28.49676 -17.75329 2457 ft 164 kts 360°
2026-05-05 19:01 28.50809 -17.75349 2380 ft 161 kts 359°
2026-05-05 19:01 28.51861 -17.75368 2162 ft 138 kts 360°
2026-05-05 19:01 28.52795 -17.75386 1943 ft 133 kts 359°
2026-05-05 19:02 28.53719 -17.75404 1764 ft 133 kts 359°
2026-05-05 19:02 28.54647 -17.75423 1581 ft 133 kts 359°
2026-05-05 19:02 28.55575 -17.75440 1396 ft 132 kts 358°
2026-05-05 19:02 28.56497 -17.75458 1211 ft 132 kts 359°
2026-05-05 19:03 28.57415 -17.75477 1026 ft 132 kts 358°
2026-05-05 19:03 28.58332 -17.75493 847 ft 131 kts 359°
2026-05-05 19:03 28.59245 -17.75513 664 ft 131 kts 359°
2026-05-05 19:03 28.60139 -17.75531 474 ft 129 kts 359°
2026-05-05 19:04 28.61042 -17.75531 300 ft 130 kts 359°
2026-05-05 19:04 28.61940 -17.75550 136 ft 127 kts
2026-05-05 19:04 28.62730 -17.75562 109 ft 84 kts 359°
2026-05-05 19:04 28.63056 -17.75570 99 ft 30 kts 358°
2026-05-05 19:05 28.63263 -17.75577 93 ft 27 kts 359°
2026-05-05 19:05 28.63401 -17.75581 87 ft 18 kts
2026-05-05 19:05 28.63513 -17.75575 86 ft 9 kts 12°
2026-05-05 19:05 28.63570 -17.75553 86 ft 9 kts
2026-05-05 19:06 28.63554 -17.75593 85 ft 12 kts 177°
2026-05-05 19:06 28.63456 -17.75585 90 ft 16 kts 176°
2026-05-05 19:06 28.63333 -17.75579 90 ft 19 kts 176°
2026-05-05 19:06 28.63190 -17.75571 97 ft 22 kts 177°
2026-05-05 19:07 28.63026 -17.75563 100 ft 25 kts 178°
2026-05-05 19:07 28.62843 -17.75559 105 ft 28 kts 179°
2026-05-05 19:07 28.62689 -17.75555 111 ft 17 kts 165°
2026-05-05 19:07 28.62604 -17.75477 115 ft 17 kts 140°
2026-05-05 19:08 28.62486 -17.75448 116 ft 19 kts 179°
2026-05-05 19:08 28.62344 -17.75443 117 ft 22 kts 179°
2026-05-05 19:08 28.62192 -17.75441 119 ft 17 kts 179°
2026-05-05 19:08 28.62120 -17.75439 119 ft 9 kts 179°
2026-05-05 19:09 28.62083 -17.75425 118 ft 4 kts 114°
2026-05-05 19:09 28.62083 -17.75393 118 ft 5 kts 89°
2026-05-05 19:09 28.62084 -17.75372 119 ft 1 kts 88°
2026-05-05 19:09 28.62084 -17.75367 117 ft 0 kts 88°